Tracking 20626 objects as of 8-Apr-2020
HD Live streaming from Space Station
objects crossing your sky now

BREEZE-M R/B

Track BREEZE-M R/B now!


NORAD ID: 38980
Int'l Code: 2012-061D
Perigee: 29,654.4 km
Apogee: 35,712.5 km
Inclination: 5.2 °
Period: 1,280.2 minutes
Semi major axis: 39054 km
RCS: 0.003 m2 (small)
Launch date: November 2, 2012
Source: Commonwealth of Independent States (former USSR) (CIS)
Launch site: TYURATAM MISSILE AND SPACE COMPLEX (TTMTR)

Note: This is a ROCKET BODY
aabbcc
Your satellite tracking list
Your tracking list is empty




NASA's NSSDC Master Catalog

Two Line Element Set (TLE):
1 38980U 12061D   20098.23110225 -.00000100  00000-0  00000+0 0  9994
2 38980   5.2372  58.3649 0775596  63.3343 304.4468  1.12485701 30219
Source of the keplerian elements: AFSPC